CAPE
0 0 0 0 0 0 0 0 0 0 0 0 3 19 56 23 34 21 43 84 37 24 4 5 57 169 163 254 313 354 322 245 209 197 230 267 220 172 203 278 293 291 330 388
0 0 0 0 0 0 0 0 0 0 4 5 19 36 52 43 41 32 85 77 103 133 5 3 6 32 96 200 350 450 464 445 343 317 344 288 219 160 211 267 264 267 318 293
0 0 0 0 0 0 0 0 0 0 6 20 51 65 6 81 102 122 49 27 59 71 86 11 12 0 2 0 24 133 283 203 194 224 246 223 323 321 326 334 290 202 240 292
0 0 0 0 0 0 0 0 0 4 4 58 93 39 122 338 316 130 35 28 21 28 38 26 34 19 0 1 5 4 3 7 13 58 49 43 99 157 203 267 340 326 317 265
0 0 0 0 0 0 0 1 28 19 65 201 243 179 13 146 269 86 57 19 8 0 0 8 14 18 24 30 8 1 1 8 0 0 16 81 82 71 27 167 146 125 84 13
0 0 0 0 0 0 0 3 81 62 102 194 164 0 0 72 155 138 55 24 10 2 0 0 0 0 1 52 72 156 39 0 0 0 0 27 51 39 20 9 0 0 0 0
0 0 0 0 0 6 0 0 100 115 138 168 38 0 0 132 144 80 98 58 3 0 0 0 0 1 33 106 81 158 183 77 2 1 0 0 0 0 5 12 0 1 0 2
0 0 0 0 0 0 0 0 77 74 94 74 49 7 18 67 112 134 85 22 0 0 0 0 0 8 59 87 40 26 75 83 26 4 9 1 0 0 2 2 2 3 0 0
0 0 0 0 0 0 0 0 73 95 83 52 0 0 0 1 72 100 94 2 0 0 0 0 0 0 14 23 41 2 8 1 0 0 0 1 0 0 0 0 0 0 0 0
0 0 0 0 0 0 0 2 33 78 28 0 0 0 0 0 47 79 35 0 0 0 0 0 0 1 0 0 1 4 12 0 0 0 0 4 4 2 2 0 0 0 0 1
0 0 0 0 6 0 3 10 28 57 34 10 0 0 0 15 86 99 69 22 0 0 0 0 0 1 0 0 0 4 0 0 0 0 0 0 0 0 0 0 0 0 0 0
0 0 0 0 0 0 0 0 0 0 5 37 42 26 41 35 58 74 115 64 16 0 0 0 0 0 0 0 0 0 0 0 0 0 0 0 0 0 0 0 0 0 0 0
0 0 0 0 0 0 0 0 0 0 0 0 34 63 51 33 38 31 126 120 60 27 0 0 5 1 0 0 0 0 0 0 0 0 0 0 0 0 0 0 0 0 0 0
0 0 0 0 0 0 0 0 0 0 6 54 18 20 41 54 26 23 62 105 39 11 8 0 0 0 0 0 0 0 0 0 0 0 0 0 0 0 0 0 0 0 0 0
0 0 0 0 0 0 0 0 0 0 0 0 0 17 49 38 26 50 72 71 26 5 0 0 0 0 0 0 0 0 0 0 0 0 0 0 0 0 0 0 0 0 0 0
0 0 0 0 0 0 0 0 0 0 0 0 0 0 0 0 20 42 62 43 31 22 3 2 0 0 0 0 0 0 0 0 0 0 0 0 0 0 0 0 0 0 0 0
0 0 0 0 0 0 0 0 0 0 0 0 0 0 0 1 51 37 27 26 19 7 4 0 0 0 0 0 0 0 0 0 0 0 0 0 0 0 0 0 0 0 0 0
0 0 0 0 0 0 0 0 0 0 0 0 0 0 0 14 55 7 0 0 0 0 0 0 0 0 0 0 0 0 0 0 0 0 0 0 0 0 0 0 0 0 0 0
0 0 0 0 0 0 0 0 0 0 0 0 0 0 1 2 1 2 0 0 0 0 0 0 0 0 0 0 0 0 0 0 0 0 0 0 0 0 0 0 0 0 0 0
0 0 0 0 0 0 0 0 0 0 0 0 0 0 25 0 0 1 0 0 0 0 0 0 0 0 0 0 0 0 0 0 0 0 0 0 0 0 0 0 0 0 0 0
0 0 0 0 0 0 0 0 0 0 0 0 0 0 11 0 0 0 0 0 0 0 0 0 0 0 0 0 0 0 0 0 0 0 0 0 0 0 0 0 0 0 0 0
0 0 0 0 0 0 0 0 0 0 0 0 0 0 0 0 0 0 0 0 0 0 0 0 0 0 0 0 0 0 0 0 0 0 0 0 0 0 0 0 0 0 0 0
0 0 0 0 0 0 0 0 0 0 0 0 0 0 0 0 0 0 0 0 0 0 0 0 0 0 0 0 0 0 0 0 0 0 0 0 0 0 0 0 0 0 0 0
0 0 0 0 0 0 0 0 0 0 0 0 0 0 0 0 0 0 0 0 0 0 0 0 0 0 3 0 0 0 0 0 0 0 0 0 0 0 0 0 0 0 0 0
0 0 0 0 0 0 0 0 0 0 0 0 0 0 0 0 0 0 0 0 0 0 0 0 0 0 0 0 0 0 0 0 0 0 0 0 0 0 0 0 0 0 0 0
0 0 0 0 0 0 0 0 0 0 0 0 0 0 0 0 0 0 0 0 0 0 0 0 0 0 0 0 0 0 0 0 0 0 0 0 0 0 0 0 0 0 0 0
2 0 0 0 0 0 0 0 0 0 0 0 0 0 0 0 0 0 0 0 0 0 0 0 1 0 0 0 0 0 0 0 0 0 0 0 0 0 0 0 0 0 0 0
CIN
-0 -0 -0 -0 -0 -0 -0 -0 -0 -0 -0 -0 -94 -108 -137 -195 -170 -160 -94 -82 -96 -141 -203 -170 -184 -170 -211 -192 -184 -186 -188 -163 -152 -150 -142 -120 -99 -90 -80 -69 -71 -70 -57 -47
-0 -0 -0 -0 -0 -0 -0 -0 -0 -0 -58 -115 -207 -236 -188 -200 -173 -163 -135 -134 -119 -150 -236 -198 -141 -131 -127 -155 -137 -133 -151 -145 -148 -139 -127 -112 -104 -67 -49 -49 -38 -44 -39 -47
-0 -0 -0 -0 -0 -0 -0 -0 -0 -0 -51 -129 -121 -125 -147 -164 -174 -155 -174 -194 -159 -175 -116 -40 -51 -17 -160 -0 -146 -107 -119 -142 -162 -145 -132 -124 -90 -53 -38 -32 -30 -31 -37 -39
-0 -0 -0 -0 -0 -0 -0 -0 -0 -101 -94 -158 -125 -173 -177 -162 -141 -174 -229 -214 -196 -187 -175 -144 -56 -74 -0 -91 -124 -195 -118 -116 -120 -130 -155 -188 -169 -93 -58 -50 -34 -28 -35 -41
-0 -0 -0 -0 -0 -0 -0 -8 -143 -99 -135 -164 -194 -167 -32 -217 -208 -228 -203 -202 -226 -30 -3 -199 -142 -121 -98 -41 -108 -66 -29 -196 -66 -0 -124 -119 -108 -127 -117 -63 -68 -59 -86 -18
-0 -0 -0 -0 -0 -0 -0 -31 -118 -126 -108 -100 -146 -0 -0 -270 -236 -250 -260 -197 -187 -67 -0 -0 -0 -0 -20 -78 -43 -66 -166 -0 -0 -0 -0 -108 -20 -93 -170 -48 -0 -0 -0 -0
-0 -0 -0 -0 -0 -50 -0 -0 -89 -114 -108 -112 -69 -0 -0 -242 -249 -241 -204 -171 -92 -0 -0 -0 -0 -138 -216 -77 -65 -55 -55 -71 -13 -0 -0 -0 -10 -0 -138 -150 -0 -0 -0 -0
-0 -0 -0 -0 -0 -0 -0 -0 -74 -95 -103 -91 -113 -206 -224 -234 -196 -195 -185 -181 -0 -0 -0 -0 -0 -131 -124 -91 -93 -96 -70 -61 -117 -36 -10 -15 -0 -0 -0 -0 -0 -0 -0 -0
-0 -0 -0 -0 -0 -0 -0 -0 -87 -82 -100 -117 -0 -0 -0 -13 -188 -156 -169 -17 -0 -0 -0 -0 -0 -0 -129 -177 -118 -19 -111 -13 -5 -0 -0 -68 -0 -0 -0 -0 -0 -0 -0 -0
-0 -0 -0 -0 -0 -0 -13 -86 -100 -93 -96 -0 -0 -0 -0 -11 -180 -154 -154 -0 -0 -0 -0 -0 -0 -0 -0 -0 -0 -153 -153 -12 -0 -0 -0 -162 -144 -0 -26 -0 -0 -0 -0 -0
-0 -0 -0 -0 -116 -21 -92 -132 -109 -112 -104 -47 -0 -0 -0 -160 -165 -142 -134 -144 -0 -0 -0 -0 -0 -0 -0 -0 -0 -244 -0 -0 -0 -0 -0 -0 -0 -0 -0 -0 -0 -0 -0 -0
-0 -0 -0 -0 -0 -0 -0 -0 -0 -0 -31 -114 -112 -106 -120 -115 -155 -160 -115 -105 -131 -0 -0 -0 -0 -0 -0 -0 -0 -0 -0 -0 -0 -0 -0 -0 -0 -0 -0 -0 -0 -0 -0 -0
-0 -0 -0 -0 -0 -0 -0 -0 -0 -0 -0 -0 -91 -102 -130 -113 -171 -161 -115 -81 -105 -135 -0 -0 -231 -73 -0 -0 -0 -0 -0 -0 -0 -0 -0 -0 -0 -0 -0 -0 -0 -0 -0 -0
-0 -0 -0 -0 -0 -0 -0 -0 -0 -0 -136 -144 -157 -163 -189 -168 -169 -124 -101 -79 -98 -133 -214 -0 -0 -0 -0 -0 -0 -0 -0 -0 -0 -0 -0 -0 -0 -0 -0 -0 -0 -0 -0 -0
-0 -0 -0 -0 -0 -0 -0 -0 -0 -0 -0 -0 -25 -169 -148 -117 -91 -78 -110 -98 -109 -170 -0 -0 -0 -0 -0 -0 -0 -0 -0 -0 -0 -0 -0 -0 -0 -0 -0 -0 -0 -0 -0 -0
-0 -0 -0 -0 -0 -0 -0 -0 -0 -0 -0 -0 -0 -0 -0 -0 -186 -119 -117 -113 -88 -129 -198 -245 -0 -0 -0 -0 -0 -0 -0 -0 -0 -0 -0 -0 -0 -0 -0 -0 -0 -0 -0 -0
-0 -0 -0 -0 -0 -0 -0 -0 -0 -0 -0 -0 -0 -0 -0 -15 -120 -125 -143 -157 -171 -200 -261 -0 -0 -0 -0 -0 -0 -0 -0 -0 -0 -0 -0 -0 -0 -0 -0 -0 -0 -0 -0 -0
-30 -0 -0 -0 -0 -0 -0 -0 -0 -0 -0 -0 -0 -0 -0 -147 -102 -58 -0 -0 -0 -0 -0 -0 -0 -0 -0 -0 -0 -0 -0 -0 -0 -0 -0 -0 -0 -0 -0 -0 -0 -0 -0 -0
-0 -0 -0 -0 -0 -0 -0 -0 -0 -0 -0 -0 -0 -0 -184 -180 -88 -48 -0 -0 -0 -0 -0 -0 -0 -0 -0 -0 -0 -0 -0 -0 -0 -0 -0 -0 -0 -0 -0 -0 -0 -0 -0 -0
-0 -0 -0 -0 -0 -0 -0 -0 -0 -0 -0 -0 -0 -0 -182 -36 -0 -39 -0 -0 -0 -0 -0 -0 -0 -0 -0 -0 -0 -0 -0 -0 -0 -0 -0 -0 -0 -0 -0 -0 -0 -0 -0 -0
-0 -0 -0 -0 -0 -0 -0 -0 -0 -0 -0 -0 -0 -0 -201 -0 -0 -0 -0 -0 -0 -0 -0 -0 -0 -0 -0 -0 -0 -0 -0 -0 -0 -0 -0 -0 -0 -0 -0 -0 -0 -0 -0 -0
-0 -0 -0 -0 -0 -0 -0 -0 -0 -0 -0 -0 -0 -0 -0 -0 -0 -0 -0 -0 -0 -0 -0 -0 -0 -0 -0 -0 -0 -38 -0 -0 -0 -0 -0 -0 -0 -0 -0 -0 -0 -0 -0 -0
-0 -0 -0 -0 -0 -0 -0 -0 -0 -0 -0 -0 -0 -0 -0 -0 -0 -0 -0 -0 -0 -0 -0 -0 -0 -0 -0 -0 -0 -0 -0 -0 -0 -0 -0 -0 -0 -0 -0 -0 -0 -0 -0 -0
-0 -0 -0 -0 -0 -0 -0 -0 -0 -0 -0 -0 -0 -0 -0 -0 -0 -0 -0 -0 -0 -0 -0 -0 -0 -0 -58 -0 -0 -0 -0 -0 -0 -0 -0 -0 -0 -0 -0 -0 -0 -0 -0 -0
-0 -0 -0 -0 -0 -0 -0 -0 -0 -0 -0 -0 -0 -0 -0 -0 -0 -0 -0 -0 -0 -0 -0 -0 -0 -0 -0 -0 -0 -0 -0 -0 -0 -0 -0 -0 -0 -0 -0 -0 -0 -0 -0 -0
-0 -0 -0 -0 -0 -0 -0 -0 -0 -0 -0 -0 -0 -0 -0 -0 -0 -0 -0 -0 -0 -0 -0 -0 -0 -0 -0 -0 -0 -0 -0 -0 -0 -0 -0 -0 -0 -0 -0 -0 -0 -0 -0 -0
-160 -0 -0 -0 -0 -0 -0 -0 -0 -0 -0 -0 -0 -0 -0 -0 -0 -0 -0 -0 -0 -0 -0 -0 -37 -0 -0 -0 -0 -0 -0 -0 -0 -0 -0 -0 -0 -0 -0 -0 -0 -0 -0 -0
Wind_Speed
18 16 15 15 15 9 11 12 15 17 18 22 20 17 13 16 18 20 20 23 22 24 25 27 26 26 27 27 25 21 26 25 23 26 24 22 22 31 32 37 37 37 36 35
14 14 14 17 14 13 13 14 12 12 14 21 18 14 13 13 18 22 22 24 24 23 22 22 21 23 23 23 27 25 26 33 29 25 26 30 29 26 27 33 31 34 39 38
16 16 19 23 19 18 18 13 3 6 9 18 14 14 15 16 18 21 23 23 23 21 21 19 22 23 23 24 23 24 28 31 30 30 27 25 26 30 31 29 32 35 36 32
18 18 27 23 22 21 18 13 3 10 13 13 12 14 16 18 18 21 24 24 22 19 19 18 20 22 28 29 27 26 28 27 27 28 24 24 24 28 33 33 29 26 28 28
20 19 25 22 18 17 14 10 6 9 11 11 13 17 18 18 18 19 19 19 18 16 19 19 19 19 20 23 28 31 31 33 33 33 37 35 37 32 31 31 28 24 22 21
21 24 27 20 18 12 11 14 6 7 7 9 14 18 20 21 19 20 19 18 18 17 15 20 23 20 20 21 20 22 27 29 28 34 36 33 28 31 29 25 23 21 19 19
22 25 22 16 12 14 16 16 5 6 7 8 14 17 16 17 19 19 18 19 19 19 18 19 23 22 21 18 18 19 22 21 15 20 26 27 18 20 21 23 20 20 19 20
19 24 27 10 12 15 15 12 6 7 7 8 14 17 18 16 16 15 17 19 21 20 20 20 20 17 14 17 19 17 18 19 16 9 8 7 8 12 14 14 18 21 16 19
14 19 15 7 14 11 8 7 9 7 10 10 15 18 16 15 12 13 15 16 17 19 19 19 17 16 13 14 16 13 13 16 15 14 8 7 6 4 1 15 13 12 15 15
12 14 12 12 14 13 9 10 7 7 6 7 8 11 13 14 14 15 15 15 16 18 19 19 18 16 15 15 16 14 12 10 12 13 10 8 6 4 5 7 9 8 9 10
17 14 14 13 15 14 11 15 15 14 13 12 14 13 13 13 12 12 12 13 14 16 18 18 17 15 15 14 12 11 9 9 10 11 10 10 9 9 8 10 9 7 8 7
17 12 16 15 13 15 17 16 15 14 17 17 16 16 15 14 12 12 10 9 12 14 16 17 17 15 14 14 12 10 11 9 10 10 9 9 8 9 11 10 8 8 8 7
12 9 14 13 11 17 19 22 23 23 24 24 19 15 13 17 16 14 9 8 11 12 16 16 16 15 14 13 12 12 13 12 10 9 10 8 8 8 7 10 11 11 9 9
14 10 17 14 16 18 22 22 20 18 19 18 17 16 16 18 19 15 12 11 11 12 16 16 17 16 14 14 13 13 12 11 11 10 9 8 8 7 7 7 7 9 9 8
27 22 23 16 10 18 20 16 13 15 17 17 17 15 15 13 13 12 14 14 10 11 15 13 15 14 13 12 11 10 11 11 10 9 8 7 7 7 7 7 6 6 7 8
24 22 16 12 10 14 14 13 9 13 13 14 14 13 11 9 9 8 8 4 8 10 10 12 13 11 10 9 9 10 10 8 7 8 7 7 7 6 6 6 6 6 6 7
21 23 19 18 12 10 3 7 3 5 5 5 8 10 10 10 10 9 7 6 8 13 14 12 12 10 8 8 9 9 8 7 6 6 6 6 7 7 6 6 6 7 7 7
29 32 33 11 23 11 4 3 3 4 5 7 8 9 9 9 9 9 10 9 6 6 5 8 7 5 6 8 8 7 7 7 6 6 6 6 7 7 6 6 6 6 7 7
37 35 33 32 29 17 9 7 5 5 6 7 8 10 11 11 8 7 5 4 6 5 4 3 4 5 5 7 6 6 6 6 7 8 6 5 5 6 6 5 5 6 7 7
34 36 36 33 30 23 16 14 12 12 10 7 9 9 11 11 9 8 8 6 3 4 4 5 3 3 3 4 5 7 4 3 5 6 6 7 7 6 7 7 6 8 7 5
31 32 33 33 30 19 13 9 11 14 17 17 19 17 15 14 14 15 15 15 18 15 10 10 10 8 8 4 4 6 6 5 6 9 13 16 11 7 6 6 8 7 3 3
15 17 19 21 15 13 13 9 11 12 15 16 17 16 14 13 14 15 17 21 24 20 22 25 23 24 24 22 17 9 5 5 6 6 7 11 6 8 5 3 3 5 6 4
16 16 17 11 8 7 4 7 11 12 14 15 17 15 15 15 15 15 18 24 25 23 21 24 23 22 20 19 20 22 16 15 15 14 15 11 5 9 8 5 4 3 2 2
16 17 16 14 11 10 4 8 12 13 15 16 15 14 13 13 16 19 21 20 24 25 26 27 26 25 22 20 19 19 19 19 20 20 18 14 9 7 7 6 2 3 5 4
20 19 17 14 10 6 5 12 5 3 8 9 10 14 14 13 12 12 16 20 26 25 25 25 24 22 18 17 15 15 15 13 12 10 8 7 6 3 1 1 0 5 7 5
23 22 20 18 17 13 13 10 4 2 1 3 3 6 9 9 8 4 5 11 15 14 11 14 15 13 12 10 9 10 10 10 8 9 6 3 1 3 5 8 10 12 10 7
23 22 22 21 19 15 12 10 9 8 7 5 4 3 4 3 4 4 3 0 1 3 3 4 3 5 5 6 5 5 5 6 7 9 9 8 4 2 4 9 13 14 11 10
Wind_Direction
314 315 316 316 320 328 325 335 340 343 335 331 326 324 333 336 319 319 316 293 302 290 286 267 268 265 260 259 259 261 262 262 263 267 270 273 275 267 263 255 254 253 243 241
311 318 321 310 319 323 315 322 334 345 345 320 326 336 348 354 313 304 309 301 303 299 298 275 275 272 267 263 260 266 264 258 266 268 268 267 271 275 271 263 268 263 249 247
306 311 310 304 306 308 314 323 334 340 356 323 330 336 346 351 335 314 305 308 305 307 288 280 285 278 268 269 271 269 263 265 266 264 266 271 273 270 268 271 266 262 261 270
303 311 294 310 313 302 304 328 32 340 335 336 325 330 341 339 346 336 313 299 299 312 301 297 302 297 269 264 266 269 271 271 269 264 266 269 274 275 269 269 272 273 271 273
295 302 307 312 320 311 299 316 339 326 332 336 328 325 332 337 344 348 346 338 337 329 305 302 306 313 287 275 267 269 274 271 269 268 265 268 265 273 276 274 272 274 273 277
293 296 300 315 322 327 322 304 327 338 339 337 327 316 319 334 343 339 340 345 342 324 326 301 287 306 303 292 288 290 282 286 272 271 266 271 264 267 274 280 274 271 272 277
287 288 302 313 328 321 300 307 354 342 344 339 327 328 341 346 342 336 332 329 329 325 318 307 294 293 298 310 300 306 304 307 300 286 275 266 267 271 271 272 271 268 269 272
290 284 287 322 317 298 305 325 353 346 339 337 325 333 336 345 345 349 336 319 312 323 312 307 304 303 305 301 296 315 325 325 337 330 306 299 277 273 274 279 278 268 267 275
288 292 324 311 313 320 352 343 325 327 324 328 328 328 337 343 359 355 344 337 325 312 316 307 308 307 309 304 302 319 346 347 354 350 331 304 321 303 204 273 283 296 299 278
296 307 313 301 307 315 328 333 343 331 329 339 341 339 340 344 346 346 345 342 331 317 308 308 305 301 304 304 300 304 315 343 6 22 13 15 10 353 342 317 304 315 317 316
294 304 303 305 304 303 311 311 316 314 318 320 320 324 331 338 344 343 340 338 333 319 313 302 303 305 297 302 308 313 320 307 325 1 3 14 7 329 319 316 318 319 308 330
289 292 300 311 314 301 303 308 314 315 311 312 314 314 320 325 331 334 331 337 330 318 310 306 294 301 301 294 302 305 297 307 305 316 340 342 351 346 335 336 319 314 309 328
299 309 314 328 333 302 302 296 305 308 306 307 314 321 321 323 322 323 321 324 316 313 305 301 292 292 298 298 294 291 282 285 296 312 313 325 336 335 342 1 23 35 21 21
306 327 305 320 312 300 298 309 319 328 325 326 330 329 326 323 318 312 303 301 300 310 300 292 283 286 296 294 292 289 291 293 292 302 315 332 343 357 3 10 16 354 353 18
278 295 296 313 320 307 315 327 330 330 328 331 337 338 338 340 330 319 306 287 297 303 295 298 288 289 296 296 299 294 291 294 304 308 318 337 340 351 356 3 4 10 356 350
279 288 301 304 329 325 334 341 334 334 338 343 344 353 6 40 38 25 37 329 306 298 304 295 292 304 314 320 307 299 300 307 316 310 314 316 324 345 348 2 9 7 8 355
284 283 287 288 314 332 116 6 18 20 31 59 19 21 43 64 71 82 63 54 316 290 286 297 300 312 322 329 317 313 315 318 324 320 330 336 327 337 330 329 352 351 353 10
269 261 253 225 201 174 156 139 107 61 65 91 62 65 59 73 86 95 102 91 30 12 356 321 331 358 345 325 331 334 329 327 328 334 334 333 327 328 353 355 4 16 2 359
243 245 243 237 225 194 174 154 118 64 89 103 106 112 116 112 80 60 39 63 71 60 49 20 2 331 341 331 355 5 344 325 321 323 337 352 348 336 338 350 359 2 4 360
235 227 230 232 229 199 181 164 148 144 127 103 117 108 132 135 112 97 106 111 57 44 14 78 27 18 14 11 13 354 355 347 341 346 357 341 345 348 329 316 333 316 329 11
233 233 230 224 212 174 144 118 131 148 152 150 158 161 154 144 137 137 143 149 157 142 113 110 117 107 114 80 3 344 335 337 310 304 293 284 308 345 12 88 120 121 86 21
244 249 257 256 273 134 131 98 119 122 139 147 154 154 146 142 144 147 158 167 179 162 173 180 164 169 169 159 146 121 86 338 335 342 346 322 129 139 123 40 22 355 346 348
265 267 270 283 280 129 348 64 116 121 137 145 152 153 154 154 150 148 166 182 185 175 163 168 170 165 161 159 167 176 172 172 167 166 175 166 127 155 157 144 127 88 80 42
284 275 274 280 287 285 321 122 136 144 149 151 153 151 143 138 158 173 180 168 176 180 187 188 186 183 173 170 170 175 179 180 187 190 189 175 159 153 161 175 196 327 337 338
282 284 282 284 289 288 304 302 333 89 124 134 143 154 154 149 148 149 164 176 194 190 189 190 187 182 176 175 173 176 177 174 172 167 156 146 147 144 92 64 40 331 327 327
274 278 284 285 285 289 296 307 303 277 190 162 146 155 162 159 152 101 105 157 168 169 169 174 177 177 177 178 177 179 180 181 175 173 171 167 130 349 337 332 331 327 326 319
278 282 285 290 292 294 295 298 298 290 276 272 267 267 194 200 189 184 174 233 209 203 240 276 249 214 218 214 223 226 229 221 219 204 203 197 213 265 312 322 322 322 323 313